Weather observations for the past three days for
Everett Snohomish County
| Date | Time (pdt) | Wind (kph) | Vis. (km) | Weather | Sky Cond. | Temperature (ºC) | Relative Humidity | Wind Chill (°C) | Heat Index (°C) | Pressure | Precipitation (cm) | ||||||
|---|---|---|---|---|---|---|---|---|---|---|---|---|---|---|---|---|---|
| Air | Dwpt | 6 hour | altimeter (cm) | sea level (mb) | 1 hr | 3 hr | 6 hr | ||||||||||
| Max. | Min. | ||||||||||||||||
| 03 | 22:53 | N 6 | 16.09 | Fair | CLR | 17.8 | 6.1 | 23.9 | 17.2 | 46% | 75.74 | 1009.7 | |||||
| 03 | 21:53 | N 7 | 16.09 | Fair | CLR | 17.8 | 7.2 | 50% | 75.77 | 1010.0 | |||||||
| 03 | 20:53 | N 6 | 16.09 | Fair | CLR | 18.3 | 7.2 | 49% | 75.77 | 1009.8 | |||||||
| 03 | 19:53 | N 9 | 16.09 | Fair | CLR | 21.1 | 7.2 | 41% | 75.77 | 1009.8 | |||||||
| 03 | 18:53 | N 13 | 16.09 | Fair | CLR | 22.8 | 8.3 | 40% | 75.77 | 1010.0 | |||||||
| 03 | 17:53 | N 13 | 16.09 | Fair | CLR | 22.8 | 9.4 | 43% | 75.82 | 1010.4 | |||||||
| 03 | 16:53 | N 15 | 16.09 | Fair | CLR | 23.9 | 9.4 | 23.9 | 18.3 | 40% | 25 | 75.84 | 1010.8 | ||||
| 03 | 15:53 | Vrbl 11 | 16.09 | Fair | CLR | 23.9 | 10 | 42% | 25 | 75.9 | 1011.6 | ||||||
| 03 | 14:53 | N 15 | 16.09 | Fair | CLR | 22.2 | 10 | 46% | 75.95 | 1012.3 | |||||||
| 03 | 13:53 | N 9 | 16.09 | Fair | CLR | 22.2 | 10 | 46% | 75.97 | 1012.7 | |||||||
| 03 | 12:53 | N 9 | 16.09 | Fair | CLR | 21.1 | 10.6 | 51% | 76.02 | 1013.4 | |||||||
| 03 | 11:53 | N 11 | 16.09 | Fair | CLR | 19.4 | 10 | 55% | 76.07 | 1013.9 | |||||||
| 03 | 10:53 | N 15 | 16.09 | Fair | CLR | 18.3 | 9.4 | 18.3 | 12.8 | 56% | 76.1 | 1014.4 | |||||
| 03 | 09:53 | N 17 | 16.09 | Fair | CLR | 16.7 | 9.4 | 62% | 76.12 | 1014.7 | |||||||
| 03 | 08:53 | N 17 | 16.09 | Fair | CLR | 15 | 10 | 72% | 76.12 | 1014.8 | |||||||
| 03 | 07:53 | N 9 | 16.09 | Fair | CLR | 13.9 | 10 | 78% | 76.12 | 1014.9 | |||||||
| 03 | 06:53 | N 11 | 16.09 | Fair | CLR | 13.3 | 8.9 | 75% | 76.1 | 1014.6 | |||||||
| 03 | 05:53 | N 7 | 16.09 | Fair | CLR | 12.8 | 7.8 | 72% | 76.1 | 1014.5 | |||||||
| 03 | 04:53 | N 6 | 16.09 | Fair | CLR | 14.4 | 7.2 | 16.7 | 14.4 | 62% | 76.12 | 1014.6 | |||||
| 03 | 03:53 | N 7 | 16.09 | Fair | CLR | 15 | 6.7 | 58% | 76.12 | 1014.7 | |||||||
| 03 | 02:53 | Calm | 16.09 | Fair | CLR | 15.6 | 7.8 | 60% | 76.12 | 1014.9 | |||||||
| 03 | 01:53 | N 9 | 16.09 | Fair | CLR | 16.1 | 6.1 | 52% | 76.15 | 1014.9 | |||||||
| 03 | 00:53 | N 11 | 16.09 | Fair | CLR | 16.7 | 5.6 | 48% | 76.12 | 1014.8 | |||||||
| 02 | 23:53 | N 11 | 16.09 | Fair | CLR | 16.1 | 6.1 | 52% | 76.12 | 1014.6 | |||||||
| 02 | 22:53 | N 9 | 16.09 | Fair | CLR | 16.7 | 6.1 | 20.6 | 16.7 | 50% | 76.12 | 1014.6 | |||||
| 02 | 21:53 | N 15 | 16.09 | Fair | CLR | 17.2 | 6.1 | 48% | 76.1 | 1014.5 | |||||||
| 02 | 20:53 | N 11 | 16.09 | Fair | CLR | 17.2 | 6.7 | 50% | 76.07 | 1014.0 | |||||||
| 02 | 19:53 | N 15 | 16.09 | Fair | CLR | 18.3 | 7.2 | 49% | 76.02 | 1013.5 | |||||||
| 02 | 18:53 | N 20 G 35 | 16.09 | Fair | CLR | 19.4 | 8.3 | 49% | 76.02 | 1013.5 | |||||||
| 02 | 17:53 | N 17 G 33 | 16.09 | Fair | CLR | 20.6 | 8.9 | 47% | 76.05 | 1013.8 | |||||||
| 02 | 16:53 | N 13 | 16.09 | Fair | CLR | 20.6 | 10 | 20.6 | 14.4 | 51% | 76.07 | 1014.2 | |||||
| 02 | 15:53 | NW 15 | 16.09 | Fair | CLR | 20 | 10.6 | 55% | 76.12 | 1014.9 | |||||||
| 02 | 14:53 | NW 17 | 16.09 | Fair | CLR | 18.9 | 10 | 56% | 76.2 | 1015.7 | |||||||
| 02 | 13:53 | N 17 | 16.09 | Fair | CLR | 18.3 | 10 | 59% | 76.23 | 1016.2 | |||||||
| 02 | 12:53 | NW 15 G 31 | 16.09 | Fair | CLR | 16.7 | 10.6 | 67% | 76.28 | 1016.8 | |||||||
| 02 | 11:53 | NW 17 G 31 | 16.09 | Fair | CLR | 15.6 | 10.6 | 72% | 76.28 | 1016.9 | |||||||
| 02 | 10:53 | N 15 G 30 | 16.09 | Partly Cloudy | SCT007 | 14.4 | 10.6 | 14.4 | 10 | 78% | 76.3 | 1017.4 | |||||
| 02 | 09:53 | N 17 | 16.09 | Mostly Cloudy | BKN007 | 12.8 | 10 | 83% | 76.33 | 1017.5 | |||||||
| 02 | 08:53 | N 17 | 16.09 | Fair | CLR | 12.2 | 9.4 | 83% | 76.3 | 1017.2 | |||||||
| 02 | 07:53 | NW 7 | 16.09 | Mostly Cloudy | BKN110 | 11.1 | 9.4 | 89% | 76.3 | 1017.4 | |||||||
| 02 | 06:53 | N 6 | 16.09 | Fog/Mist | BKN110 | 10 | 9.4 | 96% | 76.3 | 1017.1 | |||||||
| 02 | 05:53 | N 7 | 12.87 | A Few Clouds | FEW110 | 10 | 8.9 | 93% | 9 | 76.3 | 1017.1 | ||||||
| 02 | 04:53 | Calm | 16.09 | Partly Cloudy | SCT110 | 10.6 | 8.9 | 12.2 | 9.4 | 89% | 76.33 | 1017.4 | |||||
| 02 | 03:53 | N 6 | 16.09 | Fair | CLR | 10 | 8.3 | 89% | 76.25 | 1016.7 | |||||||
| 02 | 02:53 | Calm | 16.09 | Fair | CLR | 10 | 8.9 | 93% | 76.28 | 1017.0 | |||||||
| 02 | 01:53 | N 7 | 16.09 | Partly Cloudy | SCT110 | 10.6 | 8.9 | 89% | 76.28 | 1016.8 | |||||||
| 02 | 00:53 | N 11 | 16.09 | Mostly Cloudy | BKN110 | 11.1 | 8.3 | 83% | 76.28 | 1016.8 | |||||||
| 01 | 23:53 | N 13 | 16.09 | A Few Clouds | FEW110 | 11.1 | 8.3 | 83% | 76.25 | 1016.5 | |||||||
| 01 | 22:53 | N 13 | 16.09 | Fair | CLR | 12.2 | 7.2 | 18.3 | 12.2 | 72% | 76.25 | 1016.4 | |||||
| 01 | 21:53 | N 9 | 16.09 | Fair | CLR | 12.8 | 6.1 | 64% | 76.23 | 1016.2 | |||||||
| 01 | 20:53 | N 17 | 16.09 | Mostly Cloudy | FEW043 SCT085 BKN110 | 12.8 | 6.7 | 67% | 76.2 | 1015.7 | |||||||
| 01 | 19:53 | N 11 | 16.09 | Light Rain | SCT070 BKN095 OVC120 | 13.3 | 8.9 | 75% | 76.15 | 1015.3 | |||||||
| 01 | 18:53 | N 11 | 16.09 | Mostly Cloudy | BKN110 | 15 | 8.3 | 64% | 76.12 | 1014.9 | |||||||
| 01 | 17:53 | N 13 G 26 | 16.09 | Fair | CLR | 17.8 | 9.4 | 58% | 76.15 | 1015.1 | |||||||
| 01 | 16:53 | N 15 | 16.09 | Mostly Cloudy | BKN120 | 18.3 | 10 | 18.3 | 15 | 59% | 76.12 | 1014.9 | |||||
| 01 | 15:53 | N 17 | 16.09 | Mostly Cloudy | BKN120 | 18.3 | 8.9 | 54% | 76.17 | 1015.3 | |||||||
| 01 | 14:53 | N 15 | 16.09 | Partly Cloudy | SCT110 | 18.3 | 9.4 | 56% | 76.2 | 1015.7 | |||||||
| 01 | 13:53 | N 13 | 16.09 | Fair | CLR | 17.2 | 9.4 | 60% | 76.23 | 1016.1 | |||||||
| 01 | 12:53 | N 15 | 16.09 | Fair | CLR | 15.6 | 9.4 | 67% | 76.23 | 1016.3 | |||||||
| 01 | 11:53 | NW 7 | 16.09 | Fair | CLR | 16.7 | 10 | 65% | 76.28 | 1016.8 | |||||||
| 01 | 10:53 | Vrbl 9 | 16.09 | Fair | CLR | 16.1 | 8.9 | 16.1 | 10.6 | 63% | 76.3 | 1017.2 | |||||
| 01 | 09:53 | N 9 | 16.09 | Fair | CLR | 13.3 | 7.8 | 70% | 76.33 | 1017.5 | |||||||
| 01 | 08:53 | N 9 | 16.09 | Fair | CLR | 12.8 | 8.3 | 74% | 76.33 | 1017.7 | |||||||
| 01 | 07:53 | N 11 | 16.09 | Fair | CLR | 11.1 | 8.9 | 86% | 76.33 | 1017.6 | |||||||
| 01 | 06:53 | N 9 | 16.09 | Fair | CLR | 11.1 | 8.3 | 83% | 76.28 | 1016.9 | |||||||
| 01 | 05:53 | N 7 | 16.09 | Fair | CLR | 11.1 | 6.1 | 72% | 76.25 | 1016.5 | |||||||
| 01 | 04:53 | N 6 | 16.09 | Fair | CLR | 10.6 | 6.7 | 13.9 | 10 | 77% | 76.25 | 1016.5 | |||||
| 01 | 03:53 | N 7 | 16.09 | Fair | CLR | 11.1 | 6.7 | 75% | 76.25 | 1016.4 | |||||||
| 01 | 02:53 | N 11 | 16.09 | Fair | CLR | 11.1 | 8.3 | 83% | 76.25 | 1016.5 | |||||||
| 01 | 01:53 | N 7 | 16.09 | Fair | CLR | 12.2 | 7.8 | 75% | 76.25 | 1016.5 | |||||||
| 01 | 00:53 | NE 6 | 16.09 | Fair | CLR | 12.8 | 8.3 | 74% | 76.28 | 1016.7 | |||||||
| 30 | 23:53 | NE 9 | 16.09 | Mostly Cloudy | BKN100 | 13.9 | 7.2 | 64% | 76.28 | 1016.7 | |||||||
| Date | Time (pdt) | Wind (kph) | Vis. (km) | Weather | Sky Cond. | Air | Dwpt | Max. | Min. | Relative Humidity | Wind Chill (°C) | Heat Index (°C) | altimeter (cm) | sea level (mb) | 1 hr | 3 hr | 6 hr |
| 6 hour | |||||||||||||||||
| Temperature (ºC) | Pressure | Precipitation (cm) | |||||||||||||||